#timestamp,LO_Frequency,Hit,StdDev 
1664067615.8,286046996.5,N
1664067635.6,286046997.8,N
1664067655.5,286046995.4,N
1664067675.3,286046997.8,N
1664067695.2,286046997.6,N
1664067715.9,286046995.5,N
1664067735.7,286046995.1,N
1664067755.6,286046995.1,N
1664067775.4,286046995.9,N
1664067795.2,286046997.1,N
1664067815.1,286046995.3,N
1664067816.0,286046995.3,N
1664067835.8,286046997.5,N
1664067855.7,286046995.1,N
1664067875.5,286046993.4,N
1664067895.3,286046993.7,N
1664067915.2,286046996.4,N
1664067935.0,286046993.3,N
1664067935.9,286046993.3,N
1664067955.7,286046995.4,N
1664067975.6,286046995.5,N
1664067995.4,286046998.0,N
1664068015.3,286046997.0,N
1664068035.1,286046995.1,N
1664068036.0,286046995.1,N
1664068055.8,286046995.3,N
1664068075.7,286046993.3,Y
1664068095.5,286047000.8,P
1664068115.4,286047000.8,N
1664068135.2,286046999.0,N
1664068155.0,286046998.7,N
1664068155.9,286046998.7,N
1664068175.8,286046999.0,N
1664068195.6,286047001.1,N
1664068215.4,286046999.3,N
1664068235.3,286046996.5,N
1664068255.1,286046997.2,N
1664068275.9,286046997.0,N
1664068295.7,286046999.2,N
1664068315.5,286046997.3,N
1664068335.4,286046997.8,N
1664068355.2,286046996.9,N
1664068375.0,286046997.5,N
1664068376.0,286046997.5,N
1664068395.8,286046997.8,N
1664068415.6,286046994.9,Y
1664068435.5,286046997.1,P
1664068455.3,286046997.4,P
1664068475.1,286046996.7,P
1664068495.9,286046998.9,N
1664068515.7,286046998.2,N
1664068535.6,286047001.0,N
1664068555.4,286047002.5,N
1664068575.2,286047001.0,N
1664068595.1,286047000.6,N
1664068596.0,286047000.6,N
1664068615.8,286047001.0,N
1664068635.6,286046998.8,N
1664068655.5,286046998.8,N
1664068675.3,286046997.0,N
1664068695.2,286046999.4,N
1664068715.9,286046997.3,N
1664068735.8,286046996.7,N
1664068755.6,286046996.6,N
1664068775.4,286046997.3,N
1664068795.3,286046994.9,N
1664068815.1,286046996.5,N
1664068835.8,286046999.4,N
1664068855.7,286046999.0,N
1664068875.5,286046998.6,N
1664068895.4,286046998.9,N
1664068915.2,286046998.4,N
1664068935.5,286047001.2,N
1664068955.3,286047001.1,N
1664068975.2,286047000.8,N
1664068995.0,286046998.6,N
1664068995.9,286046998.6,N
1664069015.8,286046998.8,N
1664069035.6,286046998.9,N
1664069055.4,286047001.1,N
1664069075.3,286046999.2,N
1664069095.1,286046997.6,N
1664069115.8,286046997.3,N
1664069135.7,286046995.5,N
1664069155.5,286046996.3,N
1664069175.4,286046993.3,Y
1664069195.2,286046996.7,P
1664069215.0,286046997.8,N
1664069215.9,286046997.8,P
1664069235.8,286046996.9,Y
1664069255.6,286047000.5,P
1664069275.5,286047000.1,N
1664069295.3,286046998.1,N
1664069315.1,286046998.2,N
1664069335.9,286046998.5,N
1664069355.7,286046999.0,N
1664069375.5,286046998.9,N
1664069395.4,286046998.3,N
1664069415.2,286047000.8,N
1664069435.1,286047001.2,N
1664069436.0,286047001.2,N
1664069455.8,286046998.4,N
1664069475.6,286046998.8,N
1664069495.5,286046998.4,N
1664069515.3,286046999.9,N
1664069535.1,286047000.5,N
1664069555.9,286046999.9,N
1664069575.7,286047001.2,N
1664069595.6,286047001.2,N
1664069615.4,286047000.2,N
1664069635.2,286047000.6,N
1664069655.1,286047000.6,N
1664069656.0,286047000.6,N
1664069675.8,286046999.3,N
1664069695.6,286047000.1,N
1664069715.5,286047002.3,N
1664069735.3,286047000.7,N
1664069755.2,286047001.2,N
1664069775.9,286047000.3,N
1664069795.7,286047000.3,N
1664069815.6,286047002.7,N
1664069835.4,286047001.8,N
1664069855.2,286047002.8,N
1664069875.1,286046998.5,N
1664069876.0,286046998.5,N
1664069895.8,286046999.3,N
1664069915.7,286047000.7,N
1664069935.5,286046999.9,N
1664069955.3,286047000.2,N
1664069975.2,286047000.3,N
1664069995.9,286046999.9,N
1664070015.8,286047000.0,N
1664070035.6,286047000.4,N
1664070055.4,286047001.2,N
1664070075.3,286046999.1,N
1664070095.1,286046997.1,N
1664070115.8,286046998.8,N
1664070135.7,286046997.1,N
1664070155.5,286046999.6,N
1664070175.4,286046998.7,N
1664070195.2,286046998.5,N
1664070215.0,286047000.2,N
1664070215.9,286047000.2,N
1664070235.8,286047000.1,N
1664070255.2,286047001.6,N
1664070275.1,286047004.2,N
1664070276.0,286047004.2,N
1664070295.8,286047003.7,N
1664070315.6,286047004.3,N
1664070335.5,286047001.3,N
1664070355.3,286046999.8,N
1664070375.2,286047002.4,N
1664070395.9,286047000.7,N
1664070415.7,286046998.3,N
1664070435.6,286046999.2,N
1664070455.4,286046996.5,N
1664070475.2,286046999.5,N
1664070495.1,286046999.1,N
1664070496.0,286046999.1,N
1664070515.8,286047001.2,N
1664070535.7,286046999.4,N
1664070555.5,286046998.7,N
1664070575.3,286046999.1,N
1664070595.2,286046996.7,N
1664070615.0,286046999.0,N
1664070615.9,286046999.0,N
1664070635.7,286046997.3,N
1664070655.6,286046999.4,N
1664070675.4,286046999.3,N
1664070695.3,286046999.3,N
1664070715.1,286046998.2,N
1664070716.0,286046998.2,N
1664070735.8,286047001.1,N
1664070755.7,286047001.2,N
1664070775.5,286047001.2,N
1664070795.3,286047000.8,N
1664070815.2,286047000.0,N
1664070835.0,286047000.4,N
1664070835.9,286047000.4,N
1664070855.8,286047000.2,N
1664070875.6,286047002.4,N
1664070895.4,286047002.4,N
1664070915.3,286047002.5,N
1664070935.1,286047002.3,N
1664070955.9,286047002.5,N
1664070975.7,286047001.7,N
1664070995.6,286047001.7,N
1664071015.4,286047004.0,N
1664071035.2,286047003.7,N
1664071055.1,286047004.0,N
1664071056.0,286047004.0,N
1664071075.8,286047003.8,N
1664071095.7,286047001.4,N
1664071115.5,286047003.9,N
1664071135.3,286047001.3,N
1664071155.2,286047003.5,N
1664071175.0,286047003.4,N
1664071175.9,286047003.4,N
1664071195.8,286047003.0,N
